Homer, AK

6:15 PM AKDT on April 25, 2018 (GMT -0800)
Homer

Weather History for PAHO - July, 2012

Change the Weather History Date:

Friday, July 6, 2012

  Actual Average Record
Temperature  
Mean Temperature 48 °F -  
Max Temperature 55 °F 59 °F 70 °F (1972)
Min Temperature 42 °F 46 °F 36 °F (1965)
Degree Days  
Heating Degree Days 16    
Moisture  
Dew Point 42 °F    
Average Humidity 77    
Maximum Humidity 93    
Minimum Humidity 59    
Precipitation  
Precipitation 0.00 in - - ()
Sea Level Pressure  
Sea Level Pressure 29.84 in    
Wind  
Wind Speed 2 mph (SE)    
Max Wind Speed 8 mph    
Max Gust Speed -    
Visibility 10 miles    
Events      
Averages and records for this station are not official NWS values.
T = Trace of Precipitation, MM = Missing Value Source: NWS Daily Summary

Daily Weather History Graph

Daily Weather History Graph

Search for Another Location

Airport or City:

Astronomy

Jul. 06, 2012 Rise Set
Actual Time 4:59 AM AKDT 11:21 PM AKDT
Civil Twilight 3:33 AM AKDT 12:45 AM AKDT
Nautical Twilight Sun does not set Sun does not set
Astronomical Twilight Sun does not set Sun does not set
Moon 11:54 PM AKDT (7/6) 9:41 AM AKDT (7/6)
Length of Visible Light 21h 12m
Length of Day
18h 22m
Waning Gibbous, 88% of the Moon is Illuminated
Jul 6
Waning Gibbous
Jul 10
Last Quarter
Jul 18
New
Jul 26
First Quarter
Aug 1
Full

Hourly Weather History & Observations

Time (AKDT) Temp. Dew Point Humidity Pressure Visibility Wind Dir Wind Speed Gust Speed Precip Events Conditions
12:53 AM 46.9 °F 42.1 °F 83% 29.83 in 10.0 mi Calm Calm - N/A   Overcast
1:53 AM 46.9 °F 39.9 °F 77% 29.84 in 10.0 mi ESE 8.1 mph - N/A   Overcast
2:53 AM 45.0 °F 39.9 °F 82% 29.84 in 10.0 mi Calm Calm - N/A   Mostly Cloudy
3:53 AM 46.0 °F 39.9 °F 79% 29.85 in 10.0 mi Calm Calm - N/A   Mostly Cloudy
4:04 AM 44.6 °F 39.2 °F 81% 29.85 in 10.0 mi North - - N/A   Mostly Cloudy
4:53 AM 44.1 °F 39.9 °F 85% 29.86 in 10.0 mi Calm Calm - N/A   Mostly Cloudy
5:53 AM 42.1 °F 39.9 °F 92% 29.86 in 10.0 mi Calm Calm - N/A   Overcast
6:53 AM 43.0 °F 41.0 °F 93% 29.86 in 10.0 mi Calm Calm - N/A   Overcast
7:53 AM 46.9 °F 41.0 °F 80% 29.86 in 10.0 mi Calm Calm - N/A   Overcast
8:53 AM 48.0 °F 42.1 °F 80% 29.86 in 10.0 mi East 4.6 mph - N/A   Overcast
9:53 AM 48.9 °F 41.0 °F 74% 29.85 in 10.0 mi Calm Calm - N/A   Mostly Cloudy
10:53 AM 48.0 °F 44.1 °F 86% 29.85 in 10.0 mi Calm Calm - N/A   Overcast
11:53 AM 50.0 °F 45.0 °F 83% 29.84 in 10.0 mi SW 4.6 mph - N/A   Overcast
12:53 PM 50.0 °F 44.1 °F 80% 29.83 in 10.0 mi South 4.6 mph - N/A   Overcast
1:53 PM 51.1 °F 44.1 °F 77% 29.83 in 10.0 mi SSW 3.5 mph - N/A   Overcast
2:53 PM 54.0 °F 45.0 °F 72% 29.82 in 10.0 mi South 3.5 mph - N/A   Overcast
3:53 PM 54.0 °F 43.0 °F 66% 29.82 in 10.0 mi SE 3.5 mph - N/A   Overcast
4:53 PM 55.9 °F 44.1 °F 64% 29.82 in 10.0 mi East 4.6 mph - N/A   Clear
5:53 PM 55.0 °F 42.1 °F 62% 29.82 in 10.0 mi ENE 5.8 mph - N/A   Mostly Cloudy
6:53 PM 55.0 °F 41.0 °F 59% 29.83 in 10.0 mi NE 5.8 mph - N/A   Overcast
7:53 PM 54.0 °F 41.0 °F 62% 29.83 in 10.0 mi NE 5.8 mph - N/A   Overcast
8:53 PM 54.0 °F 41.0 °F 62% 29.83 in 10.0 mi Variable 3.5 mph - N/A   Mostly Cloudy
9:53 PM 53.1 °F 39.9 °F 61% 29.84 in 10.0 mi Calm Calm - N/A   Mostly Cloudy
10:53 PM 51.1 °F 45.0 °F 80% 29.85 in 10.0 mi Variable 3.5 mph - N/A   Mostly Cloudy
11:53 PM 48.0 °F 46.0 °F 93% 29.85 in 10.0 mi WSW 4.6 mph - N/A   Overcast